sat.trackr.live / text

‹ back to catalog

STARLINK-3239

NORAD 49743 · 2021-115V

PAYLOAD ACTIVE UNKNOWN

§ Identity

Operator
Country
US
Launch date
2021-12-02
Launch site
AFETR
Launch vehicle
Mass (kg)
RCS (m²)

Purposes: comms

External: N2YO · Heavens-Above · Gunter

§ Orbital elements

Epoch: 2026-05-25T01:18:33.760224Z

Period
95.44 min
Inclination
53.2144°
Eccentricity
0.0001118
Mean motion
15.08840763 rev/d
Perigee alt
539.0 km
Apogee alt
540.5 km
Semi-major
6,917.9 km
B*
4.9326e-5
RAAN
166.2386°
Arg perigee
76.9453°
Mean anomaly
283.1664°
Rev number
24,706

§ Raw data

STARLINK-32391 49743U 21115V   26145.05455741  .00000497  00000+0  49326-4 0  99932 49743  53.2144 166.2386 0001118  76.9453 283.1664 15.08840763247066

JSON: /api/v1/satellites/49743 · /tle

For live sub-satellite position, see the globe view (requires WebGL).

§ Visibility from observer

Set your observer location to see the next 7 days of passes ≥ 10°. The values pass through the URL so the page stays shareable.

No JS? Fill the form by hand. The geolocation button needs JavaScript.